Find Beidou DW 2

NORAD ID: 34779 Int'l Des: 2009-018 Owner: CNSA Country: CN Constellation: BeiDou operational
HEO

リアルタイム位置

3D地球を読み込み中...

Beidou DW 2について

説明を読み込み中...

次回通過

Passes for default location (London). Set your location on the main map for personalized predictions.

高度履歴

Loading altitude history...

軌道要素

1 34779U 09018A 26104.09628390 -.00000176 00000-0 00000+0 0 9992
2 34779 11.3104 42.6253 0306466 283.6705 82.7792 0.94517866 61558
Epoch: Apr 14, 2026 • Age: 14 hours

現在のステータス

高度 37213.5 km
速度 3.03 km/s
衛星直下点 -4.54°S, 156.06°E
打ち上げ日 Apr 14, 2009
運用期間 16.9 years
タイプ navigation

技術仕様

分類 Payload
質量 3060.00 kg
乾燥質量 1700.00 kg
総質量 3060.00 kg
長さ 3.00 m
直径 1.70 m
スパン 18.00 m
形状 Box + 2 Pan
製造者 CAST
バスタイプ DFH-3B
フェーズステータス In Orbit
所有者/国 CNSA/CN

Most Searched